Simultaneous Nadir Overpasses (SNOs) Predictions

Prediction of SNOs between GOES-15 and METOP-C Satellite Orbit:

Table of predicted SNOs for the next 14.0 days since TLE Epoch: 5/13/2023
Index Date Time (GOES-15) GOES-15 Lat,Lon METOP-C Lat,Lon Distance(km) Time Diff (sec)
1 05/13/2023 19:24:38 -0.25,-147.23 -0.01,-148.25 116.67 80
2 05/16/2023 07:20:22 0.26,-148.37 0.33,-147.91 52.33 80
3 05/17/2023 19:41:56 -0.25,-149.06 0.49,-152.50 391.49 80
4 05/18/2023 19:18:37 -0.26,-149.51 -0.72,-147.53 226.18 80
5 05/20/2023 07:40:19 0.25,-150.19 -0.16,-152.16 223.98 80
6 05/21/2023 07:17:01 0.26,-150.63 1.05,-147.19 392.85 80
7 05/22/2023 19:38:32 -0.26,-151.31 -0.13,-151.76 52.40 80
8 05/25/2023 07:34:16 0.27,-152.41 0.48,-151.42 112.95 80
9 05/26/2023 19:55:48 -0.26,-153.08 0.36,-156.01 333.07 80
